Location: Ferchesar
(52.6477°N, 12.4298°E)
Time: 04:23:36
(UTC+01:00)

Vanguard 1 Rocket - Pass Details

Date: 13 December 2021
Orbit: 651 x 4224 km, 34.3° (Epoch: 15 January)

Event Time Altitude Azimuth Distance (km) Brightness Sun altitude
Exits shadow 03:54:30 31° 190° (S) 3,422 10.0 -37.7°
Maximum altitude 03:55:23 31° 184° (S) 3,506 10.1 -37.6°
Drops below altitude 10° 04:09:59 10° 132° (SE) 6,393 12.1 -35.4°
Sets 04:16:50 0° 125° (SE) 7,906 12.8 -34.4°
